User: anonymous   Login
Location: Unspecified
(0.0000°N, 0.0000°E)
Time: 08:24:17
(UTC+01:00)
Language:

Cosmos 2279 Rocket - Orbit

View from above orbital plane
View from above orbital plane
View from above satellite
View from above satellite

Ground track
Ground track

The orbit data is extracted from the following two-line orbital elements,

1 23093U 94024B   17328.57802556 +.00000088 +00000-0 +73126-4 0  9994
2 23093 082.9465 355.2009 0008709 275.2705 084.7459 13.77739367653272
Epoch (UTC): 24 November 2017 13:52:21
Eccentricity: 0.0008709
inclination: 82.9465°
perigee height: 965 km
apogee height: 978 km
right ascension of ascending node: 355.2009°
argument of perigee: 275.2705°
revolutions per day: 13.77739367
mean anomaly at epoch: 84.7459°
orbit number at epoch: 65327

The dashed part of the orbit path shows where the satellite is in the earth's shadow,  

DLR